Вернуться в каталог

STARLINK-5148

АктивенСвязьVLEO
NORAD 53978·PAYLOAD·🇺🇸 United States

Запущен Oct 5, 2022 с Vandenberg Space Force Base

Loading…

Ближайшие Пролёты (ближайшие 24 часа)

TLE

СвежийSource: CelesTrak SupGP

Эпоха: Sep 15, 2026, 01:42 UTC

1 53978C 22125Q   26258.07131944  .00074722  00000+0  28138-2 0  2589
2 53978  53.1606  86.9013 0001144  95.4577 238.0953 15.26531053    11

Отслеживайте STARLINK-5148 в реальном времени с AllMySat

Download on the App Store